Preview of NWS' New Version of Forecast
This preview is not operational and should not be used for support decisions.
Latest weather observations around

Chino, Chino Airport (KCNO)

Using International System of Units (Switch to English Units)
Date/ Time (PDT) Wind (kph) Vis. (km) Weather Sky Cond. Temp (°C) Rel. Humidity Wind Chill (°C) Heat Index (°C) Pressure Precip. (cm)
Air Dwpt 6 hour Altimeter (hPa) Sea level (hPa) 1 hr 3 hr 6 hr
Max Min
May 20 05:53 W 11 16.09 Clear CLR 9 8     96% 7   1011.2 1010.9      
May 20 04:53 SW 9 16.09 Mostly Cloudy BKN075 10 10     100%     1010.8 1010.6     0
May 20 04:35 W 11 16.09 Cloudy SCT029 OVC075 11 10     93%     1011.2        
May 20 03:53 W 11 16.09 Cloudy OVC029 12 11     93%     1011.2 1011      
May 20 03:45 W 11 16.09 Cloudy OVC029 11 11     97%     1011.2        
May 20 02:53 WSW 13 16.09 Cloudy OVC033 11 10     93%     1011.2 1010.9      
May 20 01:53 W 11 16.09 Mostly Cloudy FEW018 BKN031 BKN041 11 11     97%     1011.2 1011.1   0  
May 20 00:53 W 17 16.09 Mostly Clear FEW040 12 11     93%     1011.5 1011.4      
May 20 00:20 WSW 17 16.09 Mostly Clear FEW017 12 11     96%     1011.9        
May 19 23:53 WSW 18 16.09 Cloudy FEW014 BKN019 OVC042 13 12     96%     1011.9 1011.5 0    
May 19 23:35 SW 15 14.48 Light Rain BKN018 BKN042 OVC060 13 12     96%     1011.9   0    
May 19 23:10 WSW 17 16.09 Cloudy SCT019 SCT046 OVC060 13 12     93%     1012.2        
May 19 22:53 SW 15 16.09 Cloudy SCT016 BKN029 OVC080 12 12     100%     1012.5 1012.1 0   0
May 19 21:53 SSW 13 16.09 Cloudy BKN035 BKN047 OVC090 13 12     93%     1012.5 1012.2 0    
May 19 20:53 SW 15 16.09 Cloudy SCT049 OVC060 13 11     86%     1012.2 1012 0    
May 19 19:53 WSW 24 16.09 Mostly Cloudy BKN040 BKN065 15 7     60%     1011.9 1011.6      
May 19 18:53 W 22 16.09 Clear CLR 16 8     60%     1011.2 1011      
May 19 17:53 W 33 16.09 Mostly Cloudy and Windy FEW038 BKN060 18 9     54%     1010.8 1010.4      
May 19 16:53 SW 37 16.09 Mostly Cloudy and Windy FEW043 SCT049 BKN075 18 9     54%     1010.8 1010.5     0
May 19 15:53 SW 28 16.09 Mostly Cloudy FEW049 SCT060 BKN070 19 9     51%     1011.2 1010.7      
May 19 14:53 SSW 18 16.09 Mostly Cloudy SCT037 BKN046 BKN060 19 11     57%     1011.5 1011.2      
May 19 13:53 WSW 8 16.09 Mostly Cloudy BKN029 BKN060 17 11     70%     1012.2 1012   0  
May 19 12:53 5 16.09 Mostly Cloudy SCT024 BKN033 BKN042 16 11     70%     1013.2 1012.8      
May 19 11:53 SE 5 16.09 Mostly Cloudy BKN029 BKN040 14 11     78%     1013.2 1013.1 0    
May 19 10:53 Calm 16.09 Cloudy SCT022 BKN030 OVC070 14 10     77%     1013.6 1013.2     0
May 19 09:53 NNE 8 16.09 Cloudy SCT022 BKN030 OVC070 13 10     83%     1013.2 1012.9 0    
May 19 08:53 5 16.09 Cloudy BKN030 OVC070 12 9     86%     1013.2 1013 0    
May 19 07:53 Calm 16.09 Light Rain BKN032 OVC070 11 9     86%     1013.2 1012.9 0 0  
May 19 06:53 Calm 16.09 Light Rain BKN033 BKN060 OVC090 11 10     93%     1012.5 1012.2 0    
May 19 05:53 Calm 16.09 Cloudy FEW038 OVC070 11 8     80%     1012.2 1011.7      
May 19 04:53 WNW 13 16.09 Cloudy FEW032 BKN046 OVC060 11 9     89%     1012.5 1012.1 0   0
May 19 03:53 WSW 17 16.09 Light Rain SCT023 BKN038 OVC060 11 11     97%     1012.9 1012.5 0    
May 19 03:28 WSW 17 16.09 Cloudy FEW013 BKN017 OVC023 12 11     96%     1012.9   0    
May 19 03:19 WSW 17 16.09 Cloudy BKN014 BKN028 OVC039 12 11     96%     1012.9   0    
May 19 02:53 W 24 16.09 Light Rain OVC023 12 12     100%     1012.9 1012.3 0    
May 19 02:35 W 17 12.87 Light Rain BKN023 OVC033 12 12     100%     1012.9   0    
May 19 01:53 W 18 16.09 Light Rain FEW017 SCT047 OVC060 13 12     93%     1012.9 1012.5 0 0  
May 19 00:53 WSW 21 16.09 Cloudy FEW031 OVC060 14 13     90%     1012.9 1012.6 0    
May 18 23:53 NW 8 16.09 Cloudy OVC060 14 12     87%     1013.6 1013 0    
May 18 22:53 W 24 16.09 Cloudy BKN090 OVC110 15 12     81%     1013.6 1013.3 0   0
May 18 21:53 W 17 16.09 Light Rain SCT065 BKN085 OVC110 15 11     78%     1013.6 1013.3 0    
May 18 20:53 W 24 16.09 Cloudy OVC100 16 13     81%     1013.2 1012.8      
May 18 19:53 WSW 18 16.09 Cloudy BKN080 OVC095 17 11     65%     1012.9 1012.4      
May 18 18:53 W 22 16.09 Mostly Cloudy BKN120 18 9     54%     1013.2 1012.7      
May 18 17:53 W 26 16.09 Mostly Cloudy FEW080 FEW150 BKN250 21 7     40%     1012.9 1012.7      
May 18 16:53 SW 28 16.09 Cloudy FEW080 OVC250 21 6     39%     1013.2 1013      
May 18 15:53 WSW 22 16.09 Mostly Cloudy FEW080 BKN250 22 6     34%   21 1013.6 1013.3      
May 18 14:53 SW 21 16.09 Mostly Cloudy FEW080 BKN250 23 6     33%   23 1014.6 1014      
May 18 13:53 WSW 22 16.09 Mostly Cloudy FEW080 SCT160 BKN250 23 7     36%   23 1014.9 1014.4      
May 18 12:53 W 17 16.09 Mostly Cloudy BKN250 22 6     35%   21 1014.9 1014.6      
May 18 11:53 SW 9 16.09 Mostly Cloudy BKN250 21 7     41%     1015.2 1015.1      
May 18 10:53 W 13 16.09 Mostly Cloudy BKN250 21 7     42%     1015.2 1015      
May 18 09:53 W 9 16.09 Clear CLR 18 7     50%     1015.6 1015.1      
May 18 08:53 Calm 16.09 Mostly Cloudy BKN250 16 9     64%     1015.2 1014.9      
May 18 07:53 Calm 16.09 Partly Cloudy SCT250 13 9     77%     1014.9 1014.7      
May 18 06:53 Calm 16.09 Partly Cloudy SCT250 11 11     97%     1014.6 1014.3      
May 18 05:53 Calm 11.27 Clear CLR 9 9     100%     1014.2 1014.1      
May 18 04:53 Calm 14.48 Clear CLR 9 8     93%     1014.6 1014.1      
May 18 03:53 Calm 16.09 Clear CLR 10 9     93%     1014.6 1014.1      
May 18 02:53 N 5 16.09 Clear CLR 11 9     89%     1014.6 1014.2      
May 18 01:53 Calm 16.09 Clear CLR 11 9     89%     1014.9 1014.7      
May 18 00:53 Calm 16.09 Clear CLR 12 8     80%     1015.9 1015.5      
May 17 23:53 Calm 16.09 Clear CLR 12 8     77%     1015.9 1015.5      
May 17 22:53 Calm 16.09 Clear CLR 13 8     74%     1015.6 1015.3      
May 17 21:53 W 8 16.09 Clear CLR 13 7     67%     1015.6 1015.3      
May 17 20:53 W 9 16.09 Clear CLR 15 7     58%     1015.2 1014.8      
May 17 19:53 W 13 16.09 Clear CLR 16 7     57%     1015.2 1014.8      
May 17 18:53 SW 18 16.09 Mostly Clear FEW080 18 6     46%     1014.9 1014.6      
May 17 17:53 SSW 22 16.09 Mostly Clear FEW060 19 6     40%     1014.6 1014.3      
May 17 16:53 WSW 26 16.09 Partly Cloudy SCT060 21 6     39%     1014.9 1014.6      
May 17 15:53 WSW 28 16.09 Partly Cloudy SCT060 22 7     38%   21 1014.9 1014.4      
May 17 14:53 WSW 26 16.09 Partly Cloudy SCT060 22 8     41%   21 1015.2 1014.8      
May 17 13:53 W 11 16.09 Mostly Cloudy BKN060 22 6     35%   21 1015.6 1015.2      
May 17 12:53 W 15 16.09 Mostly Cloudy BKN050 21 7     41%     1015.9 1015.7      
May 17 11:53 8 16.09 Mostly Cloudy BKN040 20 7     43%     1016.6 1016.1      
May 17 10:53 Calm 16.09 Mostly Cloudy BKN039 18 8     54%     1016.6 1016.3      
May 17 09:53 5 16.09 Mostly Cloudy BKN031 16 8     60%     1016.6 1016.3      
May 17 08:53 8 16.09 Mostly Cloudy BKN032 15 11     75%     1016.9 1016.6      
May 17 07:53 Calm 16.09 Mostly Cloudy BKN034 12 11     93%     1016.6 1016.4      
May 17 06:53 Calm 16.09 Partly Cloudy SCT037 10 10     100%     1016.3 1015.9      
May 15 04:53 Calm 12.87 Clear CLR 12 9     83%     1015.9 1015.3      
May 12 10:53 SE 5 16.09 Cloudy BKN025 OVC035 16 11     70%     1015.6 1015.3     0
May 12 02:53 SW 11 14.48 Cloudy BKN023 OVC036 15 9     69%     1012.2 1011.9      
May 12 02:00 SW 8 16.09 Cloudy SCT025 OVC031 15 9     69%     1012.2        
May 11 17:53 W 22 16.09 Cloudy OVC043 17 11     65%     1009.8 1009.4      
May 11 12:53 WNW 11 16.09 Cloudy OVC030 19 11     59%     1011.5 1011      
Jun 10 18:53 W 24 16.09 Mostly Cloudy FEW050 BKN200 20 12     59%     1010.8 1010.5      
Jun 09 20:53 WSW 15 16.09 Mostly Clear FEW018 19 15     76%     1012.5 1012.2      
Jun 09 19:53 WSW 18 16.09 Mostly Clear FEW040 21 15     68%     1012.2 1011.8      
Jun 09 15:53 SW 30 16.09 Mostly Clear FEW050 28 12     37%   27 1011.9 1011.5      
Jun 08 07:53 WSW 8 6.44 Haze OVC014 18 14     76%     1015.9 1015.6      
Jun 07 05:53 Calm 6.44 Haze OVC012 18 14     81%     1013.6 1013.2      
Jun 06 09:53 5 4.02 Haze OVC013 20 14     70%     1014.6 1014